Retour au catalogue

LEMUR-2 CARROLLEMO

ActifScienceSSO
NORAD 68489·PAYLOAD·🇩🇪 Germany

Lancé Mar 30, 2026 depuis Vandenberg Space Force Base

Loading…

Prochains Passages (prochaines 24 heures)

TLE

FraisSource: Space-Track

Époque: Sep 14, 2026, 14:32 UTC

1 68489U 26067CB  26257.60558747  .00002119  00000-0  21403-3 0  9996
2 68489  97.7626 214.3611 0003427 109.7396 250.4192 14.92097477 25058

Suivez LEMUR-2 CARROLLEMO en temps réel avec AllMySat

Download on the App Store